Location: Mount Pleasant
(46.5965°N, 64.0050°W)
Time: 19:25:44
(UTC+00:00)

Daily predictions for brighter satellites

Satellite Brightness Start Highest point End
(mag) Time Altitude Azimuth Time Altitude Azimuth Time Altitude Azimuth
Cosmos 1758 Rocket 3.5 20:54:21 10° N 20:58:40 77° E 21:02:56 10° SSE
Cosmos 2098 Rocket 3.2 20:54:54 10° S 20:59:05 62° E 21:04:00 10° NNE
Cosmos 2297 Rocket 2.2 20:54:27 10° NNW 21:00:10 85° ENE 21:05:50 10° SSE
BREEZE-M DEB (TANK) 3.1 20:58:06 10° WNW 21:00:42 58° N 21:07:33 10° E
CENTAUR R/B 3.7 20:56:35 10° W 21:02:03 35° NNW 21:08:45 10° NE
Cosmos 2279 Rocket 4.0 20:56:54 10° S 21:03:06 83° E 21:09:22 10° N
Cosmos 1777 Rocket 4.0 21:00:06 10° S 21:05:19 70° ESE 21:10:32 10° NNE
Cosmos 1461 2.7 21:04:21 10° SW 21:08:14 89° SE 21:12:11 10° NE
Cosmos 724 4.5 21:02:34 10° NW 21:08:39 84° WSW 21:14:32 10° SSE
Cosmos 1607 4.1 21:03:35 10° NW 21:09:50 86° WSW 21:16:09 10° SSE
IRIDIUM 104 4.5 21:07:22 10° N 21:12:30 54° E 21:17:35 10° SSE
GEOS 3 Rocket 4.1 21:07:25 10° NE 21:12:38 48° ESE 21:17:48 10° SSW
SL-08 ROCKET BODY 4.5 21:08:13 10° N 21:14:12 87° W 21:20:16 10° S
Lacrosse 4 Rocket 3.8 21:16:21 10° WNW 21:17:55 12° NW 21:19:29 10° NNW
Cosmos 1626 Rocket 4.4 21:16:05 10° NNW 21:20:17 53° W 21:24:27 10° S
MOS 1 Rocket 4.0 21:16:41 10° SE 21:21:13 37° ENE 21:25:59 10° N
IRIDIUM 114 4.3 21:16:27 10° N 21:21:40 65° E 21:26:50 10° SSE
Cosmos 2219 4.1 21:16:53 10° N 21:21:45 27° NE 21:26:35 10° ESE
UNK 3.8 21:18:27 10° NNE 21:22:59 56° E 21:27:26 10° S
Cosmos 1980 Rocket 3.1 21:18:45 10° SSE 21:23:30 29° ESE 21:28:07 11° NE
EXPRESS MD2 4.4 21:22:13 10° S 21:23:55 16° SE 21:25:48 11° E
Cosmos 1844 Rocket 4.4 21:21:35 10° N 21:23:55 12° NE 21:25:40 11° NE
Cosmos 1900 4.4 21:20:30 10° NW 21:25:34 90° NE 21:30:32 10° SSE
CORIOLIS 4.1 21:20:32 10° SSE 21:25:50 73° ENE 21:31:10 10° N
Cosmos 1933 3.4 21:22:41 10° S 21:26:23 50° E 21:30:06 10° NNE
Cosmos 1486 Rocket 4.5 21:21:31 10° SSW 21:26:40 63° WNW 21:31:54 10° NNE
USA 238 DEB 4.1 21:22:04 10° S 21:27:32 37° ESE 21:32:56 12° NE
USA 238 4.1 21:22:11 10° S 21:27:39 36° ESE 21:33:02 12° NE
Cosmos 1606 Rocket 3.8 21:24:05 10° SSE 21:28:19 50° E 21:32:37 10° NNE
NOSS 2-3 (D) 3.7 21:26:16 10° SSW 21:29:45 41° ESE 21:32:35 15° NE
NOSS 2-3 (E) 3.6 21:26:21 10° SSW 21:29:51 44° ESE 21:32:45 15° NE
IRIDIUM 103 4.3 21:25:35 10° N 21:30:50 78° E 21:36:03 10° S
Cosmos 990 Rocket 4.0 21:27:55 10° S 21:32:57 61° ESE 21:38:02 10° NNE
Cosmos 2263 Rocket 2.5 21:27:35 10° NNW 21:33:01 43° NE 21:38:24 10° SE
SAR-Lupe-4 3.7 21:30:33 10° SSE 21:33:59 49° ENE 21:37:26 10° N
Meteor 1-5 Rocket 4.3 21:28:50 10° N 21:34:01 47° ENE 21:39:18 10° SSE
SJ-12 3.8 21:32:40 10° SSE 21:36:20 51° ENE 21:40:01 10° N
Cosmos 1782 4.2 21:33:23 10° SW 21:36:42 35° WNW 21:40:02 10° N
USA 215 4.1 21:31:20 12° ENE 21:36:45 36° N 21:42:37 10° WNW
SMAP 3.0 21:32:37 10° SSE 21:37:16 84° ENE 21:41:58 10° NNW
ATLAS CENTAUR R/B 4.3 21:36:41 10° W 21:38:27 14° WSW 21:40:10 10° SSW
Meteor 1-25 Rocket 4.2 21:32:37 10° N 21:38:28 79° ENE 21:44:13 10° SSE
IRS-1C 4.1 21:34:13 10° SSE 21:39:29 68° ENE 21:44:47 10° N
Cosmos 2266 Rocket 4.0 21:33:48 10° N 21:39:58 89° W 21:46:01 10° S
Landsat 7 3.7 21:37:03 10° SSE 21:41:41 73° ENE 21:46:21 10° N
Aureole 1 Rocket 4.0 21:38:28 10° SSE 21:42:31 34° E 21:46:50 13° NE
SAR-Lupe-1 4.0 21:42:21 10° SSE 21:45:53 60° ENE 21:49:28 10° N
CZ-4C R/B 3.4 21:39:13 10° NW 21:46:19 71° SW 21:55:03 10° SSE
Cosmos 1867 3.9 21:41:01 10° NW 21:46:27 70° WSW 21:51:51 10° SSE
AQUARIUS 4.1 21:43:22 10° SSE 21:47:42 62° ENE 21:52:04 10° N
ARIANE 5 R/B 2.4 21:43:44 10° SSE 21:48:48 82° ENE 21:53:58 10° NNW
Meteor 1-28 Rocket 4.3 21:46:30 10° N 21:49:39 37° WNW 21:52:44 10° SW
Meteor 2-10 4.4 21:46:00 10° N 21:51:08 42° ENE 21:56:23 10° SE
Cosmos 1726 Rocket 3.6 21:46:48 10° S 21:51:23 65° E 21:55:56 10° NNE
Cosmos 2227 Rocket 2.2 21:46:04 10° NNW 21:51:45 87° WSW 21:57:24 10° SSE
Cosmos-2242 3.8 21:49:29 10° SSE 21:53:10 29° E 21:54:58 21° NE
Cosmos 2151 4.3 21:53:24 10° NNW 21:57:18 41° W 22:01:13 10° SSW
BREEZE-M DEB (TANK) 4.2 21:57:01 10° WNW 22:00:25 49° NNE 22:07:03 20° E
YAOGAN 1 3.1 21:59:14 10° SE 22:03:04 34° ENE 22:06:56 10° N
Cosmos 1697 Rocket 2.9 21:57:31 10° SW 22:03:06 69° WNW 22:08:36 11° NNE
Okean 1-7 Rocket 4.4 21:59:14 10° NNW 22:03:31 52° W 22:07:44 10° S
Cosmos 1553 Rocket 4.5 21:58:43 10° SSE 22:04:13 36° E 22:09:51 10° NNE
USA 81 4.1 21:59:40 10° N 22:04:50 52° E 22:09:57 10° SSE
Meteor 2-20 4.4 21:59:36 10° S 22:05:41 67° E 22:11:47 10° NNE
CZ-2D R/B 3.5 22:06:48 10° S 22:09:52 53° W 22:12:58 10° NNW
SPOT 1/Viking Rocket 3.5 22:04:50 10° SSE 22:09:57 63° ENE 22:15:07 10° N
SKYMED 2 3.7 22:08:40 20° NNE 22:11:26 51° E 22:15:39 10° S
Lacrosse 5 rocket 3.0 22:13:14 10° NW 22:15:37 16° N 22:15:49 16° N
NOSS 3-2 (C) 4.1 22:12:25 10° WSW 22:17:20 42° NW 22:21:50 16° NNE
SL-16 R/B 4.0 22:13:59 10° N 22:19:29 34° WNW 22:24:56 10° WSW
CZ-2D R/B 3.4 22:17:57 10° SSE 22:22:05 63° ENE 22:26:11 10° N
Cosmos 1953 Rocket 3.7 22:19:35 10° NNW 22:24:03 76° W 22:28:29 10° S
Cosmos 1538 Rocket 4.0 22:19:31 10° NNW 22:24:50 86° WSW 22:30:10 10° SSE
BREEZE-M DEB (TANK) 1.9 22:23:47 10° W 22:25:14 51° WNW 22:25:14 51° WNW
Cosmos 1244 Rocket 4.4 22:20:33 10° N 22:26:48 65° E 22:32:56 10° SSE
Meteor 2-20 Rocket 4.3 22:21:00 10° S 22:27:10 69° E 22:33:07 10° NNE
Gbstr 26 Del rocket 3.0 22:29:48 10° W 22:33:42 53° NNW 22:34:09 49° N
PSLV R/B 3.4 22:30:52 10° SSE 22:35:16 56° NE 22:38:50 10° N
IRAS Rocket 4.1 22:29:30 10° SSE 22:34:54 63° ENE 22:40:19 10° N
SL-08 R/B 4.4 22:33:06 10° N 22:39:25 68° E 22:45:44 10° SSE
Cosmos 2082 3.6 22:34:06 10° NNW 22:39:50 73° ENE 22:44:42 15° SE
COSMO-SKYMED 1 2.2 22:43:10 74° E 22:43:16 74° ESE 22:47:22 10° S
COSMOS 2455 3.3 22:38:07 10° S 22:43:40 40° ESE 22:43:41 40° ESE
Cosmos 1386 Rocket 4.5 22:37:49 10° N 22:43:49 54° ENE 22:49:52 10° SSE
Meteor 2-6 Rocket 4.4 22:38:33 10° SSE 22:43:58 48° E 22:44:21 48° E
Meteor 2-2 Rocket 4.1 22:41:08 10° S 22:46:47 88° E 22:51:02 18° NNE
BREEZE M DEB (TANK) 4.4 22:45:08 10° W 22:45:51 18° WNW 22:45:51 18° WNW
Okean 1 3.4 22:44:15 10° S 22:47:12 57° SSW 22:47:12 57° SSW
Cosmos 2237 4.3 22:42:26 10° S 22:47:56 51° ESE 22:48:14 50° E
Spot 4 Rocket 4.0 22:43:59 10° SSE 22:49:05 83° WSW 22:54:14 10° NNW
SL-16 R/B 3.6 22:45:57 10° SSE 22:48:31 23° SE 22:48:31 23° SE
Cosmos 1898 Rocket 3.5 22:47:01 10° SSW 22:52:10 81° WNW 22:54:04 40° NNE
Cosmos 967 Rocket 4.4 22:48:17 10° SSW 22:54:33 67° ESE 22:56:00 52° ENE
CENTAUR R/B 4.4 22:49:49 10° NW 22:55:01 22° N 22:57:34 19° NNE
NOSS 2-3 (C) 4.4 22:53:55 10° WSW 22:57:06 34° NW 22:57:06 34° NW
Cosmos 2058 Rocket 3.8 22:53:20 10° SSW 22:57:42 54° WNW 23:00:12 24° N
SL-19 R/B 4.2 22:52:53 10° SSE 22:58:17 83° WSW 23:04:01 10° NNW
Cosmos 372 Rocket 4.4 22:53:41 10° SW 22:58:45 58° WNW 23:01:05 31° N
Meteor 1-26 Rocket 4.4 22:57:30 10° SSW 23:02:52 67° WNW 23:06:26 22° N
Cosmos 2219 3.7 23:00:37 10° NNW 23:06:17 60° WSW 23:11:54 10° S
Cosmos 923 Rocket 3.9 23:01:16 10° NNW 23:06:30 85° WSW 23:07:37 56° SSE
SL-24 R/B - RUBIN 2 4.1 23:01:14 10° SSW 23:05:56 58° SSE 23:05:56 58° SSE
Cosmos 1980 Rocket 2.9 23:01:44 10° SW 23:07:13 49° WNW 23:09:53 28° N
Cosmos 1937 Rocket 3.5 23:03:49 10° SSW 23:08:59 78° WNW 23:09:35 68° N
Cosmos 1844 Rocket 3.5 23:03:43 10° NNW 23:07:21 36° N 23:07:21 36° N
Cosmos 2263 Rocket 3.8 23:11:44 10° NW 23:16:47 34° WSW 23:21:49 10° SSW
USA 238 DEB 4.1 23:12:11 10° WSW 23:18:12 52° NW 23:20:23 38° N
USA 238 4.1 23:12:17 10° WSW 23:18:18 53° NW 23:20:28 38° N
USA 215 3.8 23:18:41 42° NNE 23:18:53 42° NNE 23:24:58 10° NW
BREEZE-M DEB (TANK) 3.4 23:14:05 10° SW 23:20:17 58° S 23:20:17 58° S
Cosmos 2369 4.0 23:17:16 10° SW 23:22:56 64° WNW 23:23:55 55° NNW
Cosmos 1680 Rocket 4.4 23:33:14 10° NNW 23:36:55 43° NW 23:36:55 43° NW
Cosmos 2333 Rocket 4.3 23:45:39 10° SSW 23:46:42 16° SSW 23:46:42 16° SSW
